CW5212 Weather Reports


Display with metric or nautical units.
time (UTC)temp
F
wind
direction
speed
MPH
gust
MPH
rain 1hr
in
rain 24hr
in
rain mn
in
humidity
%
barometer
mb
20260506083019 36 330 4.0 10.0 0.00 0.00 0.00 34 949.2
20260506081606 37 66 0.0 10.0 0.00 0.00 0.00 35 948.9
20260506073054 38 57 5.0 11.0 0.00 0.00 0.00 33 948.5
20260506071526 38 17 6.0 13.0 0.00 0.00 0.00 34 948.5
20260506061601 40 17 5.0 13.0 0.00 0.00 0.00 40 947.0
20260506050108 41 24 2.0 8.0 0.00 0.00 0.00 42 946.3
20260506044524 41 53 4.0 11.0 0.00 0.00 0.00 42 946.2
20260506043105 42 17 6.0 15.0 0.00 0.00 0.00 42 945.8
20260506041536 42 13 4.0 12.0 0.00 0.00 0.00 42 945.2
20260506040016 43 29 5.0 12.0 0.00 0.00 0.00 41 944.7
20260506034558 43 24 4.0 14.0 0.00 0.00 0.00 40 944.5
20260506033028 44 31 3.0 12.0 0.00 0.00 0.00 40 944.0
20260506031508 45 329 4.0 12.0 0.00 0.00 0.00 38 943.5
20260506030045 46 342 6.0 11.0 0.00 0.00 0.00 38 943.4
20260506024538 47 300 2.0 16.0 0.00 0.00 0.00 43 943.0
20260506023056 50 319 2.0 10.0 0.00 0.00 0.00 36 942.8
20260506021542 49 324 5.0 13.0 0.00 0.00 0.00 39 942.5
20260506020016 50 321 11.0 20.0 0.00 0.00 0.00 35 942.6
20260506014551 52 24 3.0 15.0 0.00 0.00 0.00 34 942.0
20260506013015 52 339 2.0 12.0 0.00 0.00 0.00 30 941.6
20260506011601 53 351 2.0 10.0 0.00 0.00 0.00 30 941.4
20260506010032 54 16 3.0 9.0 0.00 0.00 0.00 27 941.1
20260506004518 55 27 1.0 11.0 0.00 0.00 0.00 26 941.0
20260506003012 55 19 1.0 14.0 0.00 0.00 0.00 28 940.8
20260506000049 56 348 5.0 13.0 0.00 0.00 0.00 25 940.5
20260505234524 58 22 0.0 8.0 0.00 0.00 0.00 26 940.4
20260505233004 58 17 2.0 6.0 0.00 0.00 0.00 27 940.4
20260505231548 57 19 3.0 8.0 0.00 0.00 0.00 25 940.5
20260505230019 57 338 3.0 9.0 0.00 0.00 0.00 28 940.6
20260505224552 58 330 4.0 11.0 0.00 0.00 0.00 27 940.6
20260505223035 58 60 5.0 12.0 0.00 0.00 0.00 24 940.6
20260505221512 57 346 4.0 11.0 0.00 0.00 0.00 28 940.7
20260505220051 57 36 3.0 11.0 0.00 0.00 0.00 27 940.6
20260505214532 57 342 3.0 9.0 0.00 0.00 0.00 28 940.6
20260505213105 56 62 2.0 16.0 0.00 0.00 0.00 28 940.6
20260505213002 56 11 2.0 16.0 0.00 0.00 0.00 28 940.7
20260505211540 56 332 5.0 10.0 0.00 0.00 0.00 25 940.7
20260505210016 56 69 3.0 11.0 0.00 0.00 0.00 28 940.6
20260505204555 55 11 4.0 14.0 0.00 0.00 0.00 25 940.8
20260505203030 56 19 5.0 12.0 0.00 0.00 0.00 28 941.1
20260505201513 56 15 5.0 13.0 0.00 0.00 0.00 26 941.4
20260505200057 56 346 4.0 12.0 0.00 0.00 0.00 24 941.3
20260505194524 55 9 3.0 12.0 0.00 0.00 0.00 27 941.4
20260505193004 56 342 5.0 12.0 0.00 0.00 0.00 24 941.2
20260505191545 55 355 4.0 13.0 0.00 0.00 0.00 26 941.2
20260505190025 55 330 8.0 16.0 0.00 0.00 0.00 26 941.3
20260505184552 55 82 3.0 12.0 0.00 0.00 0.00 29 941.2
20260505183049 55 31 2.0 8.0 0.00 0.00 0.00 33 941.2
20260505181512 53 348 4.0 11.0 0.00 0.00 0.00 33 941.2
20260505180050 53 344 3.0 10.0 0.00 0.00 0.00 31 941.2
20260505174526 52 11 4.0 12.0 0.00 0.00 0.00 36 941.3
20260505173100 52 312 4.0 11.0 0.00 0.00 0.00 37 941.1
20260505173002 52 342 4.0 10.0 0.00 0.00 0.00 37 941.1
20260505171546 51 26 3.0 15.0 0.00 0.00 0.00 39 941.1
20260505170017 50 26 3.0 13.0 0.00 0.00 0.00 37 941.0
20260505164604 50 333 2.0 9.0 0.00 0.00 0.00 35 941.0
20260505163033 49 297 3.0 9.0 0.00 0.00 0.00 39 941.2
20260505161519 48 355 5.0 10.0 0.00 0.00 0.00 39 941.1
20260505153024 44 336 4.0 13.0 0.00 0.00 0.00 49 941.0
20260505151520 46 344 5.0 12.0 0.00 0.00 0.00 45 941.0
20260505124607 42 33 2.0 10.0 0.00 0.00 0.00 69 939.6
20260505124502 42 60 2.0 10.0 0.00 0.00 0.00 69 939.6
20260505123057 42 22 2.0 10.0 0.00 0.00 0.00 73 939.5
20260505121549 42 339 2.0 8.0 0.00 0.00 0.00 68 939.6
20260505120051 41 355 3.0 9.0 0.00 0.00 0.00 62 939.6
20260505114550 42 355 2.0 11.0 0.00 0.00 0.00 63 939.4
20260505113029 42 327 3.0 9.0 0.00 0.00 0.00 63 939.4
20260505111516 45 346 4.0 9.0 0.00 0.00 0.00 62 939.1
20260505101550 47 36 4.0 13.0 0.00 0.00 0.00 58 938.6
20260505100022 47 344 5.0 11.0 0.00 0.00 0.00 59 938.5
20260505094556 46 349 2.0 9.0 0.00 0.00 0.00 61 938.5
20260505093034 47 346 1.0 6.0 0.00 0.00 0.00 60 938.4
20260505091510 48 40 2.0 6.0 0.00 0.00 0.00 58 938.4
20260505090048 49 15 2.0 8.0 0.00 0.00 0.00 55 938.4
20260505084525 50 49 2.0 9.0 0.00 0.00 0.00 51 938.3